Tracking 30696 objects as of 16-Jun-2025
HD Live streaming from Space Station
objects crossing your sky now

TITAN 3C TRANSTAGE R/B

Track TITAN 3C TRANSTAGE R/B now!
10-day predictions


NORAD ID: 1863
Int'l Code: 1965-108A
Perigee: 346.8 km
Apogee: 20,666.1 km
Inclination: 26.7 °
Period: 363.7 minutes
Semi major axis: 16877 km
RCS: 10.3335 m2 (large)
Launch date: December 21, 1965
Source: United States (US)
Launch site: AIR FORCE EASTERN TEST RANGE (AFETR)

Note: This is a ROCKET BODY
Your satellite tracking list
Your tracking list is empty




NASA's NSSDC Master Catalog

Two Line Element Set (TLE):
1 01863U 65108A   25166.33072491  .00002178  00000-0  11646-2 0  9995
2 01863  26.7170 130.0018 6019652  25.4163 354.7509  3.95951509353736
Source of the keplerian elements: AFSPC